Tracking 32941 objects as of 16-Jan-2026
HD Live streaming from Space Station
objects crossing your sky now

WESTFORD NEEDLES

Track WESTFORD NEEDLES now!
10-day predictions
WESTFORD NEEDLES is classified as:


NORAD ID: 628
Int'l Code: 1963-014F
Perigee: 3,648.3 km
Apogee: 3,683.6 km
Inclination: 87.3 °
Period: 166.8 minutes
Semi major axis: 10036 km
RCS: 0.4773 m2 (medium)
Launch date: May 9, 1963
Source: United States (US)
Launch site: AIR FORCE WESTERN TEST RANGE (AFWTR)
Your satellite tracking list
Your tracking list is empty




NASA's NSSDC Master Catalog

Two Line Element Set (TLE):
1 00628U 63014F   26015.53094502  .00000003  00000-0  00000-0 0  9995
2 00628  87.3309 217.6676 0017594 288.6837  71.2106  8.63373669975785
Source of the keplerian elements: AFSPC